Helicity
107 90 63 62 54 53 52 47 49 39 29 49 76 87 71 88 66 73 99 105 96 80 70 55 36 60 86 166 200 151 207 166 122 119 115 184 260 331 277 222 243 270 296
109 87 62 64 52 52 48 47 53 43 54 67 84 77 75 56 63 68 88 92 107 63 49 17 46 43 93 122 211 192 221 253 176 138 220 243 270 358 351 285 270 291 314
105 80 65 59 47 48 49 54 62 79 84 81 68 62 49 27 50 39 63 73 56 49 -13 4 -0 22 112 144 147 186 150 194 182 211 261 248 243 381 353 281 327 356 359
89 69 59 50 42 50 57 67 73 82 85 62 37 49 30 11 28 16 32 48 8 38 -39 -41 -11 -30 41 148 133 120 197 197 185 191 260 311 292 360 358 289 273 284 295
73 60 51 45 43 54 65 80 95 93 76 45 20 25 7 2 24 3 3 40 35 5 -46 -87 -45 -2 18 52 99 106 149 173 186 220 260 297 329 344 362 348 249 213 252
72 63 51 49 43 58 80 94 109 107 56 41 1 -12 -5 -2 30 24 10 38 55 1 -55 -77 -35 18 51 39 43 90 89 118 130 197 248 293 332 331 331 342 282 237 208
76 64 53 51 47 66 81 72 63 74 37 63 3 -8 1 2 28 29 31 45 44 6 -33 -51 -18 -0 26 28 56 57 64 147 99 106 177 226 263 323 280 304 246 206 227
61 51 47 51 55 60 66 39 33 47 24 46 11 4 3 9 25 27 35 30 18 -11 -15 -39 -8 -4 1 13 59 64 63 76 87 54 90 130 194 252 212 209 182 125 178
53 43 43 52 53 37 41 17 25 36 20 23 21 21 24 27 25 18 26 25 9 -14 -26 -45 -11 -14 17 26 20 51 78 101 84 91 89 107 147 173 187 200 241 198 175
43 32 43 52 39 33 30 16 32 37 28 32 36 38 27 42 14 16 11 21 -5 -19 -31 -34 16 6 24 30 10 35 58 96 105 113 113 133 133 157 180 190 188 212 193
27 32 43 61 44 32 27 30 43 39 42 55 53 52 46 46 49 2 -3 15 -43 -33 -45 -23 -3 30 30 38 30 25 49 67 86 84 90 101 127 151 158 180 166 137 160
39 45 30 55 42 24 24 35 44 36 30 58 71 74 89 113 56 36 11 19 -38 -40 -44 -31 -16 25 29 49 34 60 78 85 82 83 88 118 138 153 174 182 171 139 77
36 40 24 33 33 15 23 28 50 32 26 52 73 84 114 124 130 55 34 24 9 41 -49 -21 8 22 37 55 80 105 103 105 104 100 100 112 132 133 133 162 144 131 112
11 34 44 28 33 34 29 34 58 37 27 60 66 90 105 115 114 110 95 86 51 65 69 31 17 23 37 57 92 119 100 94 86 92 103 111 108 123 117 108 109 118 106
33 28 41 28 27 34 41 61 87 53 42 54 66 74 97 99 60 -4 47 66 38 61 97 97 68 81 96 109 114 113 105 84 84 95 106 112 128 140 129 121 108 101 86
40 21 20 23 34 40 49 59 43 55 65 41 14 -16 75 47 20 2 31 39 17 52 108 93 103 108 107 125 118 94 84 91 96 91 100 109 130 152 165 153 128 114 100
29 19 11 18 32 33 45 55 68 77 38 31 8 8 -0 3 16 5 12 48 28 77 105 98 105 124 130 114 93 91 95 72 69 83 99 115 127 148 170 164 151 119 103
32 31 10 13 22 26 44 49 62 83 95 83 49 19 12 7 17 6 18 73 143 125 132 124 138 149 152 134 116 103 80 81 101 113 122 131 135 131 157 142 116 80 64
18 17 9 17 26 29 39 48 60 66 71 75 91 88 52 27 21 16 27 89 134 139 151 141 157 147 134 130 134 128 111 115 120 127 136 143 144 138 149 77 53 45 48
4 9 10 7 24 32 26 42 52 62 69 71 69 71 83 71 44 49 76 115 142 152 144 157 144 123 137 130 134 120 120 145 168 166 163 156 158 139 89 67 54 42 32
-3 -3 11 11 20 32 25 39 50 66 68 76 82 79 74 67 52 15 64 110 157 175 160 153 115 121 115 122 124 134 143 163 171 170 175 179 175 103 94 57 24 9 7
-10 4 9 16 24 28 36 38 46 53 59 73 87 86 83 92 92 83 56 89 133 145 148 152 127 136 124 126 137 155 160 167 179 179 185 172 115 85 77 44 14 9 3
3 12 15 24 29 38 40 44 46 49 54 62 74 87 92 103 111 112 124 108 109 109 112 116 144 144 135 129 139 144 156 175 179 175 148 101 88 62 50 31 17 16 30
19 27 28 30 34 39 44 48 52 49 54 58 73 79 86 105 127 117 138 155 148 96 71 78 90 108 125 117 133 145 158 164 164 170 96 60 52 48 36 32 11 18 21
28 34 39 44 44 47 48 46 51 55 55 56 63 71 75 93 105 129 147 152 149 153 136 85 69 78 87 96 91 103 130 134 135 119 73 66 45 38 35 19 8 9 13
42 47 53 56 54 55 57 55 51 53 55 58 59 61 62 74 93 119 131 135 132 143 140 146 151 121 70 66 78 73 81 90 90 115 29 30 17 20 19 13 10 -0 4
Wind_Speed
71 70 70 71 70 71 71 72 74 74 75 77 78 79 79 84 82 77 75 64 58 55 60 73 71 68 60 56 53 45 40 38 40 43 42 42 44 44 42 42 40 40 39
69 68 69 69 69 70 71 71 72 73 73 76 75 78 80 86 87 79 80 75 60 60 67 73 72 68 53 37 38 41 36 31 33 37 38 39 34 36 37 38 38 37 39
68 67 68 69 70 70 70 70 71 70 72 74 76 81 82 87 90 82 81 83 75 60 75 77 70 59 47 40 29 32 32 27 24 30 32 33 32 29 33 30 30 34 36
67 67 67 69 70 69 68 70 71 70 74 76 76 78 83 87 91 87 82 83 83 65 75 77 73 56 46 40 29 25 25 26 23 21 27 29 31 29 30 33 32 29 31
66 65 67 66 69 68 69 71 72 71 76 76 77 76 83 88 94 93 82 79 82 72 75 74 71 62 49 46 36 27 28 27 23 20 19 21 25 29 32 35 35 32 29
64 65 64 65 67 70 70 73 75 76 78 78 79 79 83 88 98 95 86 76 77 70 75 71 65 62 52 45 36 30 27 28 24 21 20 19 24 28 31 32 31 34 39
64 63 64 65 67 70 72 74 77 80 79 80 80 81 81 89 96 94 89 77 75 73 73 67 61 59 53 45 40 32 31 30 28 24 23 23 25 30 31 30 27 24 29
62 62 64 65 67 72 75 76 78 77 80 79 79 81 81 88 94 93 88 79 74 71 71 65 59 56 56 49 40 33 31 32 33 27 24 26 29 31 30 30 27 25 25
62 61 61 63 68 73 75 78 78 77 80 79 79 82 84 87 93 92 87 80 76 70 66 62 59 55 55 53 41 39 34 33 34 32 29 28 30 30 30 28 27 28 27
59 58 58 62 64 73 74 78 77 76 77 77 79 81 82 85 89 90 88 81 77 66 60 61 57 55 53 52 45 39 36 35 34 31 29 30 32 32 31 30 29 27 30
54 55 58 60 60 69 72 74 77 75 74 79 78 78 79 81 80 84 82 83 73 58 61 57 54 55 52 49 48 43 37 34 33 32 31 30 31 32 32 32 31 28 26
53 56 56 60 58 65 71 72 74 75 76 78 78 77 72 58 40 39 46 81 50 41 55 52 52 52 50 47 44 45 41 33 33 34 32 32 33 33 33 33 32 31 28
53 58 58 62 60 65 68 72 72 74 75 76 76 72 55 53 62 67 72 86 49 26 40 49 49 48 45 43 44 42 41 40 35 32 34 33 32 32 32 31 31 30 30
49 56 59 62 65 63 65 67 69 71 72 72 71 57 42 59 67 69 73 69 56 33 22 25 40 41 41 42 42 42 40 40 39 35 33 32 32 32 32 33 30 30 29
50 56 59 61 64 65 63 64 66 62 65 67 64 29 34 57 42 34 46 43 32 28 32 28 33 43 43 42 43 44 41 40 40 37 35 34 32 31 32 34 33 31 29
50 54 58 60 62 62 64 67 70 66 61 70 71 46 35 66 50 33 55 51 33 29 35 23 25 31 40 39 41 42 43 42 40 38 36 35 35 32 30 31 33 32 33
50 51 55 59 61 62 63 66 70 65 58 58 70 69 64 78 63 37 38 55 49 41 31 22 22 22 24 29 36 39 41 40 37 37 38 38 37 37 36 36 35 34 34
47 52 53 57 59 61 62 65 66 64 61 57 58 71 65 64 76 31 42 51 53 28 35 24 22 21 19 18 19 26 32 36 37 36 37 38 39 39 39 40 39 38 37
47 50 53 56 59 59 61 63 63 61 61 59 57 57 40 59 63 31 40 48 42 30 26 21 21 19 19 19 18 13 13 21 27 32 35 37 38 39 40 41 42 42 41
47 50 53 57 57 58 61 62 61 61 61 61 63 63 51 46 59 37 22 33 32 30 24 22 19 18 17 19 22 15 15 16 17 19 23 28 33 35 39 41 42 42 43
43 48 52 55 57 58 61 62 59 60 62 61 61 60 57 57 32 36 17 20 25 26 25 23 22 19 18 19 24 20 13 11 13 14 15 15 16 21 26 33 38 41 42
41 47 51 53 54 58 58 59 59 60 61 60 58 57 57 60 55 38 19 19 18 22 23 26 25 21 19 19 21 24 17 12 10 10 11 9 10 11 13 24 33 35 37
40 45 49 50 51 53 56 56 57 59 59 59 58 58 57 56 55 51 42 15 17 16 18 21 24 26 23 20 19 20 21 15 11 10 12 15 17 21 21 27 27 32 32
40 44 45 47 47 49 52 53 53 55 56 57 57 56 56 54 51 49 46 40 30 16 24 22 21 26 24 24 20 18 15 14 12 9 7 15 22 24 23 27 30 28 30
40 41 42 42 43 44 46 48 49 50 52 54 53 52 52 51 50 46 44 42 39 37 28 24 36 34 36 37 32 28 24 25 22 14 9 9 15 23 25 29 32 33 36
38 39 39 39 40 41 42 43 44 44 46 48 49 49 49 48 47 44 43 41 40 39 36 35 29 25 44 47 47 46 45 42 38 33 28 28 27 31 24 30 36 41 43
Wind_Direction
12 14 14 15 16 15 14 12 11 12 13 13 15 16 17 16 16 17 17 20 21 24 26 10 4 339 330 324 318 309 298 276 255 254 256 261 257 257 261 264 268 273 278
13 15 15 16 17 16 14 13 12 14 13 13 16 16 16 14 13 16 14 16 23 22 21 16 5 345 326 316 312 317 307 295 263 252 253 253 258 261 262 265 270 278 285
14 15 16 17 17 16 16 14 14 15 13 13 14 14 15 13 12 12 11 10 15 24 11 7 7 334 323 318 309 316 315 300 291 257 253 254 258 272 262 271 279 281 283
15 16 17 17 17 18 17 15 14 15 13 11 14 14 14 13 11 9 7 6 4 19 6 356 359 333 322 315 302 310 313 318 293 280 261 256 256 275 272 268 273 293 292
16 17 16 18 17 18 17 15 13 14 12 13 14 16 14 12 8 5 6 6 4 10 4 350 350 340 328 325 318 309 311 320 312 298 285 267 270 273 272 277 270 277 289
17 16 18 18 18 16 16 13 12 12 12 15 15 15 13 11 5 5 6 6 3 7 3 349 343 339 332 325 318 316 318 315 309 310 303 290 286 283 285 286 280 272 267
16 17 17 17 17 15 14 13 12 11 13 13 14 14 14 11 7 6 5 5 360 358 359 345 338 337 334 329 324 317 320 323 326 309 303 295 296 297 290 291 286 296 280
17 17 17 17 17 15 14 15 13 14 13 14 15 15 16 13 8 6 6 6 0 357 355 342 334 335 340 336 327 321 321 322 329 325 315 302 304 304 308 297 294 292 319
17 18 19 20 18 16 16 14 14 15 15 16 17 17 16 14 9 7 8 8 360 349 342 341 337 337 340 342 334 333 327 327 328 329 331 329 330 326 323 317 306 292 293
18 21 23 22 22 18 18 16 18 19 20 21 21 20 19 17 12 5 3 11 356 341 337 342 338 342 342 345 342 336 334 329 325 322 322 326 328 325 327 326 318 310 298
23 24 23 23 26 23 20 22 22 24 25 24 24 25 26 25 26 355 353 17 348 334 342 339 338 343 345 346 349 347 340 331 332 331 330 328 325 325 325 324 325 317 319
22 22 25 25 31 26 24 25 26 27 28 28 28 30 36 43 39 31 39 30 339 332 340 339 340 344 347 347 349 351 347 339 339 342 340 337 334 329 324 328 329 334 330
21 23 27 27 30 27 28 28 30 30 31 32 33 37 45 44 41 38 37 26 48 51 338 343 344 346 347 346 348 347 346 347 343 343 345 339 331 325 329 330 331 336 340
27 25 27 27 25 30 32 33 33 34 35 37 38 47 48 44 41 41 39 43 51 58 56 344 344 347 348 348 348 347 346 346 346 342 337 333 332 333 336 334 326 326 326
29 27 27 27 26 31 35 36 36 41 43 41 43 51 46 47 36 16 48 51 50 57 69 74 354 355 354 352 349 348 346 346 346 343 340 339 336 336 337 336 335 330 326
27 30 28 27 30 35 37 37 39 44 51 43 40 359 55 46 50 34 53 56 51 58 70 38 11 358 354 349 348 347 347 346 344 343 342 340 340 335 328 327 331 326 324
30 33 31 29 33 36 38 39 38 45 52 49 42 3 354 10 49 49 52 58 61 66 65 36 22 16 1 350 346 346 346 345 343 346 346 345 341 337 333 331 327 324 323
32 28 32 34 37 39 42 42 43 46 47 50 50 26 355 355 6 48 57 61 61 47 66 52 45 40 33 23 2 347 345 346 348 346 346 344 343 342 340 339 336 334 331
34 29 32 36 39 44 46 46 49 51 52 53 52 53 26 352 357 357 62 63 62 51 50 37 48 43 38 46 47 40 5 346 342 343 344 343 341 341 340 342 343 342 339
33 27 37 39 46 49 49 51 54 55 57 56 55 53 56 61 356 350 46 61 57 55 41 43 32 31 39 51 61 42 2 349 344 339 335 334 335 336 342 343 344 344 344
33 35 41 46 51 53 53 55 59 59 59 60 60 59 60 62 55 346 14 42 52 50 38 35 19 27 36 55 67 64 41 12 350 338 333 330 327 331 334 339 344 348 348
31 44 43 53 56 54 57 59 61 61 61 62 63 63 63 64 66 72 2 6 33 57 46 58 28 39 43 52 60 66 57 24 8 349 340 334 333 328 325 332 340 342 345
38 50 55 59 63 62 61 63 62 62 63 64 64 65 65 66 67 68 71 31 3 19 28 42 45 26 33 49 57 62 65 52 13 343 331 330 328 332 332 336 335 339 340
44 58 68 71 70 68 67 66 66 65 65 65 66 66 67 68 69 69 70 70 68 7 350 357 7 7 16 19 32 35 41 38 43 38 4 336 335 335 336 340 342 341 343
84 81 82 81 79 76 73 71 70 68 67 67 68 69 69 69 70 70 71 70 70 69 64 357 348 348 351 354 356 358 360 357 357 7 37 13 351 347 345 345 347 346 348
95 89 90 86 83 81 79 76 74 74 72 70 70 70 70 71 71 71 72 71 70 70 68 67 58 11 352 351 351 351 352 352 352 350 350 351 351 351 347 348 351 354 355